Wind_Speed
8 7 7 7 7 6 2 0 6 7 7 8 7 9 11 10 10 9 9 8 7 8 7 7 7 7 6 7 7 7 7 8 8 8 7 7 6 6 5 5 5 4 4 3 3 3 3 2 2
9 9 9 9 9 9 10 7 5 9 9 9 10 11 12 9 10 10 9 9 8 8 8 8 8 8 8 8 9 9 9 9 9 9 8 8 7 7 7 6 6 6 5 5 4 4 4 3 3
11 11 10 10 8 10 15 15 10 10 11 11 13 14 13 12 11 11 10 10 9 9 9 9 9 9 9 10 10 10 10 10 10 10 9 9 9 9 8 8 7 7 7 6 6 6 5 5 4
13 12 12 11 8 11 17 17 14 12 14 14 15 17 16 13 11 11 11 11 10 10 11 10 11 11 11 11 11 12 12 11 11 11 11 10 10 10 10 9 9 9 8 8 7 7 7 7 7
14 13 11 9 9 14 18 18 16 14 17 15 18 20 17 12 11 11 11 12 11 11 11 12 12 12 13 13 13 13 13 13 13 12 12 12 12 12 11 11 10 10 10 9 9 9 9 9 9
14 13 10 9 13 16 19 21 19 18 18 17 17 21 18 12 12 12 13 13 12 12 13 14 13 14 14 14 15 15 15 15 15 15 14 14 13 13 13 12 12 11 11 11 11 11 11 11 11
14 13 11 11 14 16 21 24 23 20 20 18 20 23 15 10 11 13 13 14 14 14 14 15 16 16 16 16 17 17 16 17 17 17 17 17 16 16 15 14 14 14 13 13 13 13 13 13 13
14 12 10 11 13 16 20 23 22 20 22 21 21 25 19 11 11 13 15 16 16 16 16 17 17 17 18 18 17 17 18 19 19 20 20 20 20 19 18 17 17 16 16 16 15 15 14 14 14
12 11 10 12 13 17 20 20 20 23 23 22 21 22 21 17 15 16 17 18 17 17 18 18 19 20 19 18 17 17 18 19 21 22 22 23 23 22 21 21 20 19 18 18 18 17 16 16 16
11 10 12 16 19 21 21 20 19 21 21 22 23 20 20 18 17 17 19 18 18 18 19 20 20 21 20 20 19 19 19 20 22 22 23 24 25 24 23 23 22 21 21 20 20 20 19 19 18
11 12 15 16 18 19 20 20 21 20 21 23 23 23 19 19 19 19 19 19 19 20 21 20 21 22 21 21 21 20 21 21 22 23 24 25 25 26 25 24 24 23 22 22 22 22 22 21 21
11 12 14 15 16 16 17 19 19 21 23 23 21 19 18 22 20 20 19 19 20 20 20 21 22 22 22 21 20 19 21 22 22 23 23 24 24 24 24 25 25 24 22 22 22 23 22 22 22
11 12 13 13 14 15 17 18 18 20 20 20 20 21 20 20 19 19 21 20 19 20 21 21 20 20 20 20 19 20 21 21 22 22 22 23 24 22 22 23 23 22 22 22 23 23 23 23 23
9 10 11 12 13 16 18 17 18 19 17 17 18 19 20 20 20 21 20 20 18 19 19 19 19 20 20 19 19 20 20 20 20 20 20 21 20 19 20 20 21 21 21 21 22 23 23 24 23
7 9 13 14 14 14 18 18 17 17 16 15 16 18 20 20 19 19 19 19 20 21 20 19 19 20 20 19 20 19 18 17 18 18 18 19 18 19 19 19 21 22 22 22 23 24 24 24 24
10 12 15 15 15 15 17 17 15 13 13 14 14 16 18 19 19 20 19 19 20 21 21 20 19 19 19 19 18 17 16 15 16 17 17 17 17 18 19 20 21 21 21 22 22 23 23 24 25
14 15 18 16 14 13 15 18 17 11 12 12 13 14 16 17 18 19 19 19 20 20 20 19 18 17 16 16 15 14 14 15 16 16 17 17 18 19 20 20 21 22 22 23 23 23 24 25 26
13 13 16 17 15 14 15 16 16 11 10 11 12 11 12 13 16 17 18 18 19 18 18 17 17 15 14 13 13 13 14 15 16 17 18 18 19 20 20 21 21 23 24 24 25 26 26 27 28
13 13 14 15 13 12 15 14 11 11 9 10 10 9 9 10 11 13 15 16 16 16 16 16 14 13 13 12 13 14 15 16 17 18 18 19 20 21 21 22 23 24 25 26 27 27 27 28 29
12 14 14 15 13 12 11 10 8 9 8 8 9 8 8 9 9 10 10 11 13 13 13 13 12 12 11 12 14 15 16 16 18 19 19 20 21 21 22 22 23 25 26 26 27 28 28 29 30
11 14 14 12 11 11 12 10 9 8 8 7 7 8 8 8 8 8 8 9 9 9 10 10 10 10 11 12 14 15 17 18 19 20 20 21 22 22 23 24 24 25 26 27 27 27 28 29 29
11 12 11 9 10 11 10 10 10 9 9 7 7 7 6 6 7 7 8 9 9 9 9 10 10 10 12 13 15 17 18 19 20 21 21 22 22 23 24 24 25 25 26 26 26 26 27 28 29
11 9 9 11 11 9 7 8 10 9 8 8 8 7 6 6 7 7 7 7 8 8 8 9 10 11 13 15 16 18 19 20 20 21 22 23 24 24 24 24 25 25 26 26 26 26 27 28 29
10 9 10 13 11 7 6 7 9 10 10 10 9 7 5 6 7 7 7 7 8 8 8 9 11 13 14 16 17 19 20 20 21 22 23 24 24 24 24 24 25 25 26 26 26 27 28 29 29
9 9 14 15 13 8 9 7 10 9 10 10 9 7 6 6 7 8 8 9 9 9 10 12 13 14 16 18 18 19 20 20 21 22 22 23 23 24 24 25 25 26 26 26 27 27 28 28 29
9 9 10 12 13 11 9 10 9 10 9 9 9 7 7 7 8 9 10 10 10 11 12 13 15 16 17 18 19 19 20 21 21 22 23 23 24 25 26 26 26 27 27 27 27 27 27 28 29
8 8 8 11 10 8 9 11 10 11 10 10 9 8 8 9 9 10 11 12 12 13 14 15 16 17 18 19 19 20 21 22 22 23 24 25 25 26 26 27 27 27 28 28 28 28 29 29 30
8 7 7 7 10 10 7 8 12 13 12 12 11 9 9 10 11 12 13 13 13 14 15 16 17 18 19 19 20 21 21 22 23 23 25 26 27 28 28 29 29 29 29 30 30 31 31 32 33
8 7 8 8 7 9 10 8 10 12 13 12 12 11 10 11 12 12 13 14 14 15 15 16 17 18 19 20 21 21 22 22 23 24 25 26 27 28 29 30 30 31 31 32 33 34 34 34 35
9 9 10 9 7 6 11 11 11 14 15 13 12 12 12 12 13 13 14 14 14 15 16 17 18 19 19 20 21 21 22 23 24 25 26 27 28 29 30 31 32 32 33 33 34 35 36 36 36
Wind_Direction
345 340 333 327 319 312 308 289 299 289 285 289 287 278 275 280 295 305 312 310 312 300 295 295 296 294 297 302 304 308 310 311 306 302 304 303 301 302 302 300 303 305 307 315 326 332 339 342 339
323 317 312 310 310 316 301 300 286 292 290 289 283 280 282 284 298 305 306 307 308 299 296 294 296 296 297 298 300 301 303 304 303 299 298 297 295 296 295 292 292 294 296 299 304 308 307 307 308
307 302 300 300 304 305 295 294 292 300 289 282 276 270 278 287 293 297 300 303 301 297 296 295 296 300 299 297 296 298 297 297 297 294 292 292 291 292 293 290 288 289 289 291 293 294 291 289 291
298 294 292 289 296 288 282 287 290 287 280 277 275 269 270 276 282 291 297 299 298 297 297 298 300 302 302 299 298 296 295 292 291 289 288 288 288 290 290 290 287 285 285 284 286 287 286 281 280
293 290 291 301 296 281 279 282 287 280 275 268 266 266 271 267 276 285 292 294 295 296 298 299 299 301 302 298 296 293 292 290 287 285 285 284 284 286 288 289 287 285 283 280 280 281 284 281 277
288 283 286 288 282 278 281 284 284 275 270 266 263 266 268 266 276 283 288 289 293 297 298 296 297 299 297 294 291 289 287 287 285 283 282 281 280 281 283 284 284 284 283 279 277 277 277 278 278
284 280 274 271 272 278 281 281 278 274 269 261 263 267 263 263 275 287 285 284 291 296 296 295 294 298 296 292 289 285 284 284 281 280 278 276 276 274 274 275 277 278 280 278 275 274 275 275 275
281 275 269 270 276 275 273 280 281 275 272 267 264 272 276 274 280 285 284 285 290 292 294 295 295 295 295 291 288 285 282 281 279 277 276 274 272 271 270 269 271 273 275 275 274 272 274 273 273
276 269 267 259 256 259 266 277 282 276 276 277 270 269 276 278 279 283 283 285 290 290 292 296 295 296 295 289 283 284 284 282 280 276 273 271 269 268 267 265 267 268 270 271 272 271 272 272 271
272 259 260 255 254 257 259 267 273 274 276 274 269 270 276 277 279 280 280 282 287 290 292 295 295 295 296 293 286 284 283 282 282 279 273 270 270 267 266 264 265 265 264 266 268 269 271 270 269
282 265 262 264 266 268 269 269 273 273 269 270 266 266 270 275 274 274 276 280 285 288 291 295 296 296 295 293 288 284 284 284 285 282 278 275 274 272 270 268 268 266 264 264 264 266 268 268 267
296 289 280 278 279 279 280 277 273 272 269 270 272 269 267 267 268 271 269 273 280 285 290 293 294 296 297 297 291 292 293 289 285 285 285 282 280 276 276 274 273 269 269 268 266 266 268 267 266
304 302 299 298 302 296 288 285 282 278 274 274 273 270 267 268 269 268 268 270 275 282 290 291 295 298 298 298 297 296 293 289 288 286 284 283 283 282 282 280 275 271 270 268 267 267 269 270 267
306 297 294 298 305 307 303 293 285 282 279 275 269 265 265 266 268 266 268 271 277 282 288 293 296 296 296 297 299 298 294 292 290 288 287 287 287 287 288 287 282 279 276 272 269 270 271 272 271
320 315 307 306 306 300 308 306 293 287 283 281 271 264 262 264 269 273 278 277 281 285 288 293 294 294 294 296 297 296 294 294 295 292 290 289 289 289 290 291 289 282 277 276 274 272 272 271 271
334 317 307 309 311 306 314 314 302 295 292 283 274 263 262 262 268 271 277 279 283 285 289 295 297 298 297 295 296 296 296 297 299 300 295 293 292 291 292 291 289 282 280 278 276 275 276 275 271
330 322 317 316 311 312 310 308 305 302 298 286 281 270 268 264 264 269 274 277 282 285 287 291 293 296 299 298 299 299 300 301 302 302 300 296 295 293 292 290 289 284 284 283 280 278 276 274 271
322 321 310 307 306 317 312 310 309 308 300 299 288 276 275 271 267 268 273 278 280 285 286 286 291 296 299 298 299 302 304 303 304 304 303 301 299 297 294 289 286 285 284 283 281 279 276 274 272
297 293 294 294 305 319 319 317 318 311 306 299 295 289 285 278 272 274 275 277 279 284 286 286 287 295 302 306 306 307 307 305 306 306 305 304 303 299 297 293 289 286 285 283 281 279 276 275 272
300 305 306 316 328 324 319 327 323 321 312 304 299 297 289 286 284 285 289 285 288 291 289 288 295 300 304 309 310 311 310 310 310 310 309 308 307 305 303 299 295 291 288 286 283 280 277 275 273
304 302 308 320 325 321 325 327 337 328 329 329 315 307 304 297 300 297 293 293 292 295 295 296 300 307 311 314 315 315 315 313 312 312 311 310 309 307 305 302 298 295 291 288 285 282 279 276 274
298 297 308 311 314 315 323 324 338 329 340 343 334 324 317 310 309 307 301 301 299 301 303 308 313 319 320 321 320 319 318 317 316 315 314 313 311 309 307 304 301 298 295 292 288 284 281 278 276
290 289 295 289 282 282 307 315 323 338 356 356 348 343 334 326 325 329 318 313 318 323 321 325 325 324 324 324 324 323 322 321 319 317 316 315 314 312 310 308 306 303 300 297 293 288 284 281 278
294 291 298 299 289 281 317 318 315 337 351 354 354 352 353 348 350 350 348 341 337 337 336 333 331 330 329 328 327 325 323 323 322 320 319 318 317 316 314 311 309 306 303 300 296 292 288 284 281
296 304 314 322 342 341 341 332 330 337 343 346 350 354 356 358 355 352 352 352 349 345 341 338 336 334 332 331 328 326 325 324 323 323 322 321 320 318 317 315 312 309 306 303 299 296 291 287 284
293 299 312 317 328 334 333 324 335 346 344 341 346 349 350 352 355 354 353 351 350 346 343 341 338 336 335 332 330 328 327 326 327 326 325 324 322 321 320 318 315 312 309 306 303 299 295 291 288
285 285 292 301 306 296 305 322 331 341 341 340 343 347 348 349 349 347 346 347 345 343 341 341 339 336 335 334 333 332 330 330 329 328 327 325 324 322 320 319 316 313 309 307 304 301 297 294 290
291 280 273 276 301 305 283 287 317 336 340 337 337 341 342 341 341 341 342 343 342 341 340 339 338 337 336 336 334 333 331 329 328 328 327 326 325 323 322 319 317 314 310 307 303 301 298 294 291
277 275 268 262 260 299 311 296 311 330 331 331 331 333 333 332 333 335 336 337 337 338 338 338 337 337 336 335 334 332 331 331 329 328 327 326 325 324 323 321 318 315 311 308 304 301 297 294 291
245 252 255 257 247 269 299 295 306 320 323 324 322 323 327 328 328 331 332 332 333 334 335 336 336 335 334 333 333 332 331 331 330 329 329 328 326 324 323 322 319 316 313 309 306 303 299 295 291
Height
5918 5917 5916 5916 5916 5913 5909 5909 5913 5911 5910 5910 5909 5907 5905 5905 5905 5905 5903 5902 5903 5902 5903 5903 5903 5903 5902 5902 5902 5902 5901 5901 5901 5901 5900 5900 5900 5900 5899 5899 5899 5898 5898 5898 5898 5897 5897 5897 5897
5917 5916 5916 5915 5914 5910 5907 5906 5908 5909 5909 5908 5907 5905 5902 5902 5903 5902 5901 5902 5902 5901 5902 5902 5902 5902 5901 5901 5901 5901 5900 5900 5900 5900 5899 5899 5899 5899 5899 5898 5898 5898 5898 5898 5898 5898 5897 5897 5897
5915 5914 5914 5913 5913 5912 5908 5908 5907 5907 5907 5906 5904 5902 5901 5900 5901 5900 5900 5900 5901 5900 5900 5900 5900 5900 5900 5900 5900 5899 5899 5899 5899 5899 5898 5898 5898 5898 5898 5898 5898 5898 5898 5898 5897 5897 5897 5897 5897
5912 5912 5912 5912 5911 5912 5909 5907 5904 5906 5906 5904 5901 5896 5896 5896 5898 5898 5898 5898 5899 5899 5899 5899 5899 5899 5898 5898 5898 5898 5898 5897 5897 5897 5897 5897 5897 5897 5897 5897 5897 5897 5897 5897 5897 5897 5897 5897 5897
5910 5910 5909 5909 5910 5910 5907 5903 5901 5904 5903 5901 5896 5892 5891 5893 5895 5895 5895 5895 5896 5897 5897 5897 5897 5897 5896 5896 5896 5896 5896 5895 5895 5895 5895 5895 5895 5895 5895 5895 5895 5895 5895 5895 5896 5896 5896 5896 5896
5907 5907 5907 5908 5910 5908 5906 5901 5900 5900 5899 5895 5890 5886 5886 5889 5892 5892 5893 5893 5894 5894 5895 5895 5894 5894 5894 5894 5893 5893 5893 5893 5893 5893 5893 5893 5893 5893 5893 5893 5893 5894 5894 5894 5894 5894 5894 5894 5894
5904 5903 5904 5906 5907 5906 5903 5898 5897 5896 5893 5893 5889 5881 5879 5881 5887 5890 5891 5890 5891 5891 5891 5892 5892 5891 5891 5891 5890 5890 5890 5890 5890 5891 5891 5891 5891 5891 5891 5891 5891 5891 5892 5892 5892 5892 5892 5893 5893
5900 5901 5902 5904 5905 5904 5899 5894 5892 5892 5890 5888 5886 5882 5876 5880 5885 5888 5888 5888 5889 5889 5889 5889 5889 5888 5888 5887 5887 5887 5887 5887 5887 5887 5887 5888 5888 5888 5888 5888 5889 5889 5889 5889 5889 5889 5890 5890 5891
5897 5898 5899 5901 5901 5898 5894 5891 5890 5888 5886 5883 5882 5880 5879 5880 5884 5886 5886 5885 5885 5885 5886 5886 5885 5885 5885 5884 5884 5883 5883 5883 5883 5883 5884 5884 5884 5884 5885 5885 5885 5885 5886 5886 5886 5887 5887 5888 5888
5894 5894 5895 5895 5894 5891 5888 5887 5886 5884 5883 5880 5879 5878 5878 5879 5881 5882 5882 5881 5882 5882 5882 5882 5882 5881 5881 5880 5879 5879 5879 5879 5879 5879 5879 5879 5880 5880 5880 5880 5881 5881 5881 5882 5883 5883 5884 5884 5885
5890 5890 5890 5889 5887 5886 5884 5883 5881 5880 5878 5875 5873 5875 5876 5875 5876 5878 5878 5878 5878 5878 5878 5878 5878 5877 5877 5877 5876 5875 5875 5875 5875 5875 5875 5875 5875 5875 5875 5875 5876 5876 5877 5877 5878 5879 5880 5880 5881
5887 5886 5885 5884 5883 5881 5880 5877 5876 5875 5873 5870 5869 5871 5874 5874 5872 5873 5873 5873 5874 5874 5874 5874 5874 5873 5873 5872 5871 5871 5871 5871 5871 5870 5870 5869 5870 5870 5870 5870 5871 5871 5872 5872 5873 5874 5875 5876 5876
5884 5883 5882 5881 5879 5877 5875 5873 5871 5868 5867 5867 5867 5868 5869 5865 5867 5869 5869 5870 5868 5870 5871 5871 5871 5870 5869 5869 5868 5867 5866 5866 5866 5865 5864 5864 5864 5864 5865 5865 5865 5865 5866 5867 5868 5869 5870 5871 5871
5882 5880 5879 5877 5875 5874 5872 5870 5866 5864 5861 5863 5863 5863 5864 5863 5863 5863 5865 5866 5866 5867 5867 5867 5867 5867 5866 5865 5865 5864 5862 5862 5861 5861 5860 5860 5860 5860 5861 5861 5861 5861 5861 5861 5862 5863 5865 5866 5867
5879 5878 5876 5874 5871 5869 5868 5866 5862 5860 5858 5859 5860 5860 5861 5861 5859 5859 5861 5863 5863 5864 5864 5864 5864 5864 5863 5862 5861 5861 5860 5858 5858 5857 5857 5857 5857 5857 5857 5857 5857 5857 5857 5857 5857 5857 5858 5859 5861
5877 5876 5873 5872 5869 5865 5866 5862 5858 5856 5855 5856 5856 5857 5858 5857 5858 5858 5860 5860 5861 5860 5861 5861 5861 5860 5859 5858 5857 5857 5856 5856 5855 5854 5854 5854 5853 5853 5852 5853 5852 5852 5852 5852 5852 5852 5853 5854 5855
5876 5873 5871 5870 5868 5865 5863 5860 5857 5854 5854 5852 5852 5853 5854 5854 5854 5855 5856 5857 5858 5857 5858 5859 5858 5857 5856 5855 5854 5854 5853 5853 5852 5851 5851 5850 5849 5848 5848 5848 5847 5847 5847 5847 5847 5847 5847 5848 5848
5876 5875 5872 5869 5868 5864 5861 5859 5856 5853 5852 5852 5850 5850 5852 5851 5851 5852 5853 5854 5854 5855 5855 5856 5855 5854 5853 5853 5852 5851 5850 5850 5849 5848 5847 5846 5845 5844 5843 5843 5843 5842 5842 5842 5841 5841 5841 5841 5841
5875 5874 5871 5867 5866 5863 5861 5858 5855 5852 5851 5851 5849 5850 5850 5850 5850 5850 5850 5851 5852 5852 5852 5853 5852 5851 5851 5850 5849 5848 5847 5847 5846 5845 5843 5842 5841 5840 5838 5838 5837 5836 5836 5835 5835 5834 5834 5834 5834
5873 5871 5869 5866 5864 5862 5861 5858 5855 5852 5850 5850 5849 5849 5849 5849 5848 5849 5849 5848 5849 5850 5850 5850 5850 5849 5848 5848 5847 5846 5844 5843 5842 5841 5840 5838 5836 5835 5833 5832 5831 5830 5829 5828 5828 5827 5827 5827 5827
5872 5870 5868 5866 5864 5862 5860 5858 5855 5852 5850 5849 5849 5849 5848 5848 5848 5848 5848 5847 5848 5848 5848 5848 5848 5847 5846 5845 5844 5843 5841 5840 5839 5837 5835 5834 5832 5830 5828 5826 5825 5824 5823 5822 5821 5820 5819 5819 5819
5870 5868 5866 5864 5862 5860 5859 5857 5855 5852 5851 5850 5849 5848 5848 5847 5847 5846 5846 5846 5846 5847 5847 5846 5845 5844 5844 5843 5841 5840 5838 5836 5835 5833 5831 5829 5827 5825 5823 5821 5819 5817 5816 5814 5813 5812 5812 5811 5811
5868 5866 5864 5861 5858 5856 5855 5855 5853 5852 5851 5850 5849 5848 5847 5847 5846 5845 5844 5845 5845 5844 5844 5844 5843 5842 5841 5840 5838 5836 5835 5833 5831 5829 5826 5824 5822 5820 5818 5816 5813 5811 5809 5808 5806 5805 5804 5803 5803
5866 5865 5863 5859 5853 5853 5854 5854 5853 5851 5851 5850 5849 5848 5847 5846 5845 5844 5843 5843 5843 5843 5843 5842 5841 5840 5839 5837 5835 5833 5831 5829 5827 5825 5822 5820 5817 5815 5813 5810 5808 5806 5803 5801 5800 5798 5797 5796 5795
5864 5863 5861 5857 5853 5853 5854 5853 5854 5851 5850 5849 5849 5848 5847 5846 5846 5845 5844 5843 5842 5842 5841 5840 5839 5837 5836 5834 5832 5830 5828 5826 5824 5821 5818 5816 5813 5810 5808 5805 5802 5800 5797 5795 5793 5791 5789 5788 5787
5862 5862 5861 5859 5856 5855 5854 5853 5852 5851 5851 5850 5849 5848 5847 5846 5845 5844 5843 5842 5841 5840 5839 5838 5836 5835 5833 5831 5829 5827 5825 5823 5820 5817 5815 5812 5809 5806 5802 5799 5796 5794 5791 5788 5786 5784 5782 5780 5779
5861 5860 5860 5859 5856 5855 5853 5852 5852 5851 5851 5850 5849 5847 5846 5846 5845 5844 5843 5841 5840 5839 5837 5836 5834 5833 5831 5829 5827 5825 5822 5819 5816 5813 5810 5807 5804 5801 5798 5794 5791 5788 5785 5782 5779 5777 5774 5772 5771
5859 5859 5859 5858 5856 5854 5853 5851 5851 5851 5850 5849 5848 5847 5846 5845 5844 5843 5841 5840 5838 5837 5835 5834 5832 5831 5828 5826 5824 5822 5819 5816 5813 5810 5807 5803 5800 5796 5792 5789 5785 5782 5778 5775 5772 5769 5766 5764 5762
5857 5857 5856 5856 5855 5854 5851 5852 5850 5851 5849 5849 5847 5846 5845 5844 5843 5842 5840 5839 5837 5836 5834 5832 5831 5829 5826 5824 5822 5819 5816 5813 5810 5807 5803 5800 5796 5791 5787 5783 5779 5775 5771 5767 5764 5761 5758 5755 5752
5853 5854 5854 5855 5854 5854 5852 5853 5849 5849 5848 5847 5846 5845 5844 5843 5842 5840 5839 5837 5836 5834 5832 5831 5829 5826 5824 5822 5819 5816 5813 5810 5807 5803 5799 5795 5791 5787 5782 5778 5773 5768 5764 5760 5756 5752 5748 5745 5742